Vertical_Velocity
-3 -3 -2 -0 -1 -1 -1 -1 1 -1 -2 -3 -1 -1 -1 1 1 0 0 -0 -1 -2 -2 -1 -3 0 -1 -0 -1 -1 -1 -1 1 -0 0 -1 -1 1 0 -1 -1 0 -0
0 -1 -1 1 0 -0 -2 -0 0 -0 -0 -1 -2 -1 -1 -0 -1 0 0 0 1 -0 1 -1 -1 -2 -2 -1 -2 -1 0 -0 1 -1 -1 -0 -0 -1 -1 0 -0 -1 -1
2 2 -1 1 -0 -1 1 -0 -2 -3 -1 -0 -0 -1 -1 0 -1 -1 0 -0 -1 0 -1 -3 -1 -2 -1 -3 -2 -3 0 -1 -2 -2 -0 0 -2 -1 0 -1 -3 -2 -2
-0 0 0 1 0 0 -0 -1 -2 -2 -2 0 1 -1 0 -0 -1 -1 -1 -1 0 -1 0 -1 -0 -2 -1 -2 -1 -1 0 -0 -0 -2 1 -0 2 0 -1 1 -1 1 1
1 1 -0 2 1 0 -1 -2 -3 -1 -2 -0 -2 -2 -2 -1 -2 -2 -0 -1 -1 -1 -1 0 -2 -3 -2 -1 -1 -1 1 -1 -1 -2 -2 2 1 0 -0 -0 -1 -1 -1
2 0 1 1 -0 -1 -1 -1 -2 -1 0 -1 -2 -0 -1 -1 -0 -0 -1 -1 -1 1 -2 -0 -2 0 -1 -1 -1 0 0 -1 -1 -1 -3 -1 -1 -1 -1 -1 -1 -0 -0
2 1 0 1 -1 -1 -1 0 -0 -3 -0 -1 -1 -1 -2 -1 -1 -1 -1 -0 -2 -0 -2 -2 -3 -0 1 -0 -2 -1 1 2 1 1 1 -2 -3 -2 -1 -1 -0 -1 -1
1 2 -1 -0 0 -0 -0 1 -0 -1 -0 -1 -3 -1 -0 0 -1 -1 -1 -1 -3 -1 -3 -1 -1 0 -1 -2 -1 -1 -1 -1 0 -0 0 -2 -0 -1 -1 -1 -2 -3 -2
1 0 1 1 1 0 0 1 1 -0 0 0 -2 0 -1 0 -0 -1 -1 -1 0 -2 -2 -2 -1 -1 0 -1 -1 -1 -2 0 -2 -2 -2 -0 -0 -0 -1 -1 -2 -0 -1
-1 1 1 -1 1 -1 1 0 1 1 -1 -1 -0 -1 -0 -0 -1 -0 -1 -2 -2 -2 -2 -2 -2 -0 -1 -1 -1 -1 -0 -1 -2 -1 -1 -1 -0 0 1 0 -0 -1 -0
-0 -1 1 1 0 -2 -1 0 1 0 1 -0 -0 -1 0 -1 -1 0 -2 -1 -1 -2 -3 -1 -1 -1 -1 -1 -1 -2 -1 -0 -2 -1 -3 -1 -1 -2 -1 -2 -2 -2 -1
-1 -2 -1 0 -1 -1 1 0 0 0 2 0 -1 -0 -1 -0 -1 -0 -1 -1 -2 -1 -1 -2 -2 -2 -1 -2 -1 -1 -1 -1 -2 -2 -1 -1 -1 -1 -2 -1 -1 -1 -1
-2 0 -1 -1 -1 -0 -0 0 -1 1 0 1 -1 1 -1 1 -1 -2 -1 0 -1 -1 -0 -1 -3 -2 1 -0 -0 -1 -2 -2 0 -2 -2 -3 -3 -1 -1 -1 -2 -2 -2
-3 1 -1 1 -0 -0 -2 -0 0 -1 1 1 -0 -0 -0 0 -1 -0 -1 0 -1 -1 -1 -1 -1 -1 -1 -1 -2 -3 -3 -2 2 -2 -1 -1 -2 -1 -2 -3 -2 -2 -3
3 0 0 -0 -1 -1 0 -1 -0 1 1 -1 -1 -0 2 -2 1 -2 1 -1 -0 0 0 -1 -1 -1 -0 0 -1 -1 1 -0 4 -2 -1 -3 -2 -2 -3 -2 -1 -1 -2
1 4 -2 2 -1 -0 -1 -3 -1 0 -2 1 -1 -0 -1 1 -1 1 -2 2 -2 1 -2 -1 1 -2 -2 -1 1 1 -1 -0 -1 3 -1 -1 -0 -0 -0 -0 -0 -0 2
2 -1 4 0 -1 1 1 -3 0 1 2 -1 -0 -3 -0 1 -0 1 4 -2 2 -4 -0 -0 2 -2 2 2 -1 -0 -0 -1 -3 -2 -0 -1 -1 -1 -1 0 -1 1 -2
1 1 -2 3 -2 -1 3 -0 -2 0 2 1 0 -1 -1 0 2 -1 2 2 0 1 1 -2 3 2 -1 1 2 1 -0 -2 0 1 -3 1 4 1 1 -1 -0 -3 -2
2 0 -2 2 1 -4 0 2 -1 -1 2 0 -1 3 -6 0 0 -0 -1 0 1 1 -0 1 1 -1 1 -1 -0 -2 0 1 1 -1 -1 -1 1 0 -2 -1 -2 -0 -1
3 -1 -4 1 2 1 -3 0 1 -1 2 2 1 0 3 -2 -0 -1 -1 0 -3 2 0 -1 -1 -1 -1 -1 -2 -4 0 5 -3 5 1 -1 -0 1 4 1 -2 -1 0
-1 2 -1 -5 1 4 -2 -2 -2 5 -2 1 1 -1 -1 -0 -3 1 -2 -0 -1 -0 1 -1 -0 2 -1 -1 1 1 -0 -1 -0 7 2 -1 -2 -5 0 2 -2 1 5
2 2 -0 -0 -1 -1 3 0 -1 -0 2 -6 -1 -1 0 3 2 0 -0 -2 0 -2 1 1 0 1 -1 1 -0 4 1 0 -1 14 -0 -0 -0 -3 0 -1 -6 -2 -0
-6 -1 6 7 4 -2 -1 -2 -1 -2 -6 3 -1 4 -1 -0 -2 -0 -1 0 -1 -1 0 1 1 -1 -1 -1 1 -6 -1 -1 -3 4 -1 0 -3 0 1 -3 -3 -0 2
-6 -0 -0 5 6 1 -2 -1 -0 -1 -0 -1 4 -1 2 -0 -1 1 -1 0 0 -1 1 -1 -0 -0 1 2 0 -3 -2 -2 -3 -5 2 4 3 1 -5 -5 -6 -4 -4
-6 -1 -0 -1 4 -1 1 -0 -1 -1 -1 1 -1 1 2 4 0 0 -1 -3 1 -0 -1 -1 1 1 2 -0 -0 1 3 -1 -2 -5 -4 2 4 3 0 -3 3 2 1
-11 -5 2 -2 2 3 3 -1 -2 1 -0 -0 2 2 4 4 1 1 2 1 1 1 -0 -1 0 -2 -1 -0 -0 -1 -3 -2 2 6 -4 -3 -4 -3 -4 -4 2 -0 5
Height
5885 5884 5884 5885 5885 5885 5885 5885 5884 5883 5883 5883 5882 5881 5880 5878 5878 5877 5877 5877 5878 5877 5877 5877 5877 5877 5877 5876 5875 5874 5873 5872 5871 5870 5870 5868 5867 5867 5866 5866 5865 5864 5863
5883 5883 5883 5884 5885 5885 5884 5884 5884 5884 5883 5881 5880 5879 5879 5878 5878 5877 5877 5877 5877 5877 5877 5877 5877 5877 5877 5875 5874 5873 5873 5872 5871 5870 5869 5868 5867 5867 5866 5865 5864 5863 5862
5882 5883 5882 5883 5884 5883 5883 5883 5883 5883 5883 5881 5880 5878 5877 5877 5877 5877 5877 5877 5877 5877 5877 5877 5876 5876 5875 5874 5873 5873 5873 5872 5870 5869 5869 5869 5868 5867 5867 5867 5865 5864 5863
5881 5881 5881 5882 5882 5882 5882 5882 5882 5882 5882 5881 5879 5878 5877 5877 5877 5876 5876 5876 5877 5877 5876 5877 5876 5876 5875 5874 5873 5873 5874 5872 5870 5870 5870 5870 5870 5869 5869 5868 5867 5866 5864
5879 5879 5880 5881 5881 5881 5881 5880 5881 5881 5881 5880 5879 5878 5877 5877 5876 5876 5876 5876 5876 5876 5876 5876 5876 5876 5875 5875 5874 5874 5874 5874 5873 5872 5871 5872 5871 5870 5870 5869 5868 5867 5866
5877 5877 5878 5879 5880 5879 5879 5879 5879 5880 5880 5879 5878 5877 5877 5877 5876 5876 5876 5875 5876 5876 5876 5876 5876 5876 5875 5874 5874 5874 5875 5874 5874 5873 5872 5872 5871 5871 5871 5870 5869 5868 5867
5874 5875 5876 5876 5877 5876 5877 5877 5877 5878 5878 5879 5878 5877 5877 5876 5876 5876 5875 5875 5876 5875 5875 5876 5876 5876 5875 5875 5875 5875 5876 5875 5875 5875 5874 5873 5872 5872 5871 5870 5869 5869 5867
5871 5872 5873 5873 5874 5874 5874 5875 5875 5876 5877 5878 5878 5876 5876 5876 5876 5875 5875 5875 5875 5875 5875 5876 5876 5876 5875 5875 5875 5876 5876 5876 5876 5875 5875 5874 5873 5873 5872 5871 5870 5870 5868
5867 5869 5870 5870 5870 5870 5871 5872 5872 5874 5875 5876 5877 5876 5875 5875 5875 5875 5875 5874 5874 5874 5875 5875 5876 5875 5875 5875 5874 5875 5875 5876 5875 5874 5874 5874 5874 5873 5872 5872 5871 5870 5869
5864 5865 5866 5866 5867 5867 5868 5869 5870 5871 5873 5874 5875 5875 5874 5875 5875 5875 5875 5874 5874 5874 5874 5874 5874 5874 5874 5874 5874 5874 5874 5874 5874 5874 5873 5873 5873 5873 5872 5872 5871 5870 5869
5860 5861 5863 5863 5863 5864 5865 5866 5867 5869 5871 5872 5873 5873 5873 5873 5874 5874 5874 5874 5874 5873 5873 5872 5872 5873 5873 5873 5873 5873 5873 5874 5873 5873 5873 5873 5873 5872 5872 5871 5870 5869 5868
5855 5857 5858 5860 5860 5861 5862 5863 5864 5867 5868 5870 5871 5871 5872 5872 5872 5872 5873 5873 5872 5872 5872 5872 5872 5871 5871 5871 5872 5871 5872 5872 5872 5872 5873 5872 5872 5871 5871 5870 5869 5868 5866
5850 5853 5854 5855 5857 5859 5859 5860 5861 5863 5866 5867 5868 5870 5870 5871 5870 5870 5871 5871 5870 5870 5870 5871 5870 5870 5870 5870 5870 5870 5870 5871 5872 5871 5870 5870 5869 5869 5869 5868 5867 5865 5864
5847 5848 5850 5852 5853 5855 5855 5857 5858 5860 5862 5864 5865 5867 5868 5869 5869 5869 5868 5869 5869 5868 5868 5868 5868 5869 5869 5869 5868 5868 5868 5869 5870 5868 5867 5867 5867 5867 5866 5865 5864 5863 5862
5844 5844 5847 5848 5848 5851 5851 5853 5855 5857 5859 5861 5862 5864 5866 5866 5867 5866 5866 5867 5866 5866 5866 5866 5866 5867 5867 5868 5867 5867 5867 5867 5867 5866 5865 5864 5864 5863 5863 5862 5861 5859 5858
5839 5840 5842 5844 5845 5847 5847 5849 5851 5853 5855 5858 5859 5860 5862 5864 5864 5865 5864 5865 5864 5865 5864 5864 5864 5865 5864 5864 5864 5864 5864 5863 5863 5864 5862 5861 5861 5860 5859 5859 5857 5856 5855
5834 5834 5837 5839 5840 5842 5845 5844 5847 5849 5851 5854 5855 5856 5858 5859 5861 5861 5862 5861 5861 5861 5862 5862 5862 5862 5863 5864 5862 5861 5861 5860 5859 5859 5859 5858 5857 5857 5856 5855 5854 5852 5851
5829 5829 5831 5834 5835 5837 5841 5841 5844 5846 5848 5851 5852 5852 5853 5854 5856 5856 5857 5858 5858 5859 5859 5859 5860 5859 5859 5860 5860 5859 5858 5857 5856 5855 5854 5855 5854 5853 5852 5850 5849 5847 5845
5824 5825 5825 5829 5831 5831 5834 5839 5839 5841 5844 5846 5847 5850 5848 5849 5851 5852 5852 5853 5853 5854 5854 5855 5854 5854 5855 5854 5855 5854 5854 5853 5853 5852 5852 5850 5850 5849 5848 5847 5845 5842 5839
5816 5821 5820 5823 5825 5827 5826 5831 5835 5836 5838 5840 5842 5845 5844 5844 5846 5846 5847 5848 5848 5849 5849 5849 5850 5849 5849 5850 5850 5850 5849 5848 5847 5848 5848 5846 5845 5843 5842 5841 5839 5836 5834
5806 5817 5816 5816 5819 5820 5821 5823 5828 5830 5832 5833 5835 5837 5839 5840 5840 5842 5841 5844 5843 5844 5845 5844 5845 5845 5845 5845 5845 5847 5845 5844 5844 5842 5842 5841 5839 5836 5835 5834 5830 5827 5826
5801 5807 5813 5812 5812 5814 5816 5818 5818 5822 5824 5826 5827 5831 5831 5834 5834 5835 5836 5837 5838 5838 5840 5840 5841 5840 5841 5840 5839 5840 5840 5841 5840 5838 5837 5839 5837 5833 5829 5827 5822 5820 5819
5793 5798 5806 5807 5807 5807 5809 5809 5811 5813 5816 5819 5823 5824 5826 5824 5825 5828 5830 5832 5832 5832 5834 5835 5836 5836 5835 5835 5835 5835 5835 5834 5834 5831 5830 5831 5829 5826 5824 5819 5813 5812 5810
5787 5793 5796 5799 5800 5801 5800 5802 5804 5806 5810 5813 5813 5816 5817 5820 5818 5821 5822 5825 5827 5827 5829 5829 5830 5830 5830 5829 5829 5828 5829 5827 5826 5825 5822 5821 5822 5819 5815 5810 5806 5804 5802
5779 5782 5786 5788 5791 5793 5794 5795 5796 5798 5803 5804 5805 5806 5809 5813 5814 5815 5816 5818 5822 5822 5823 5823 5823 5823 5824 5824 5822 5821 5821 5821 5820 5817 5812 5811 5810 5809 5807 5803 5801 5799 5796
5768 5770 5775 5779 5783 5785 5786 5787 5788 5790 5792 5794 5798 5800 5802 5804 5806 5808 5809 5811 5814 5815 5815 5816 5816 5816 5816 5817 5816 5815 5816 5816 5814 5813 5809 5805 5802 5800 5797 5792 5792 5791 5789